EUTELSAT 9B (41310 NORAD) Tracking and Keplerian Element Data

This shows tracking and keplerian element data for the satellite.

Feedback or suggestion? Click here.




ElementValue
Catalog41310
NameEUTELSAT 9B
Epoch Orbit3311
Epoch Day34.68539836
Epoch Year2025
RAAN71.3608
Inclination0.0435
Eccentricity0.0004742
Argument of Perigee226.2063
Mean Anonmoly92.24
Mean Motion1.00272107
Decay Rate6.6E-07
L11 41310U 16005A 25034.68539836 .00000066 00000+0 00000+0 0 9993
L22 41310 0.0435 71.3608 0004742 226.2063 92.2400 1.00272107 33111



Live tracking and technical data element details for EUTELSAT 9B (NORAD 41310). EUTELSAT 9B can be tracked NOW for your location showing map with azimuth and elevation plus other details from your city location.







IsCatalogInMostPopularTable: catalog: 41310, numindb: 699
Update: records affected: 1



GetName: 41310 EUTELSAT 9B

Hit Count: updated at: Sat, 17 May 2025 05:09:58 GMT